Weather Roundup
Issued by NWS Springfield, MO

Home | Current Version | Previous Version | Text Only | Print | Product List | Glossary On
Versions: 1 2 3 4 5 6 7 8 9 10 11 12 13 14 15 16 17 18 19 20 21 22 23 24 25 26 27 28 29 30 31 32 33 34 35 36 37 38 39 40 41 42 43 44 45 46 47 48 49 50
000
NZUS99 KSGF 240307
HRRSGF

HOURLY WEATHER
NATIONAL WEATHER SERVICE SPRINGFIELD MO
1000 PM CDT TUE MAY 23 2017

......SGF CWA......

CITY           SKY/WX    TMP DP  RH WIND       PRES   REMARKS
SPRINGFIELD    CLOUDY    59  46  62 NW5       29.77R
JOPLIN         CLOUDY    58  49  72 NW7       29.80S
WEST PLAINS    CLOUDY    58  52  80 NW5       29.76R
OSAGE BEACH    PTCLDY    55  49  80 NW3       29.76S
BRANSON        PTCLDY    57  50  77 CALM      29.78S

......SURROUNDING SGF CWA......

CITY           SKY/WX    TMP DP  RH WIND       PRES   REMARKS
CHANUTE        CLOUDY    57  47  69 NW17      29.83R
PARSONS        CLOUDY    53  50  89 NW5       29.84S
COFFEYVILLE    CLOUDY    57  48  72 NW9       29.84R
EMPORIA        CLOUDY    54  45  71 NW12      29.85S
GROVE OK       CLOUDY    61  46  59 NW7       29.82S
ROGERS AR      PTCLDY    55  49  80 NW5       29.81R
SILOAM SPRINGS CLOUDY    57  45  62 NW21      29.81R
HARRISON AR    PTCLDY    56  53  90 W3        29.78R
NEAR YELLVILLE MOCLDY    61  52  72 W3        29.74R

......KANSAS AND MISSOURI......

CITY           SKY/WX    TMP DP  RH WIND       PRES   REMARKS
KANSAS CTY INT CLOUDY    54  47  77 NW6       29.80S
DOWNTOWN KC    MOCLDY    56  52  86 NW3       29.79S
COLUMBIA       CLEAR     57  48  72 NW12      29.74S
SEDALIA        MOCLDY    58  50  75 NW6       29.77S
ST JOSEPH      CLOUDY    55  48  77 NW12      29.80S
ST LOUIS       CLOUDY    63  56  78 CALM      29.71S
SPIRIT OF STL  CLOUDY    59  58  96 S3        29.70S
KIRKSVILLE     PTCLDY    51  45  79 NW5       29.74F
WICHITA        MOCLDY    56  44  64 NW10      29.89S
TOPEKA         CLOUDY    55  49  80 NW7       29.83S
OLATHE         CLOUDY    52  52 100 W6        29.80S

......TENNESSEE......

CITY           SKY/WX    TMP DP  RH WIND       PRES   REMARKS
MEMPHIS        CLOUDY    66  53  63 N5        29.69R
NASHVILLE      MOCLDY    69  57  65 W5        29.66S

......ARKANSAS.......

CITY           SKY/WX    TMP DP  RH WIND       PRES   REMARKS
FAYETTEVILLE   MOCLDY    54  54 100 CALM      29.79F
FT SMITH       PTCLDY    62  54  74 W9        29.79R
LITTLE ROCK    CLOUDY    64  58  80 NW10      29.73R

......OKLAHOMA.......

CITY           SKY/WX    TMP DP  RH WIND       PRES   REMARKS
TULSA          CLOUDY    62  46  55 NW10      29.82S
PONCA CITY     CLEAR     55  47  74 VRB6      29.88S
MCALESTER      PTCLDY    60  54  80 W5        29.84S
OKLAHOMA CITY  CLOUDY    61  44  53 N14       29.89S

......IOWA............

CITY           SKY/WX    TMP DP  RH WIND       PRES   REMARKS
DES MOINES     MOCLDY    52  49  89 NW7       29.75S
QUAD CITIES    PTCLDY    55  49  80 W6        29.70S

......ILLINOIS........

CITY           SKY/WX    TMP DP  RH WIND       PRES   REMARKS
QUINCY         CLOUDY    55  51  86 NW5       29.71S
CHICAGO        CLOUDY    57  53  86 E7        29.68F




USA.gov is the U.S. government's official web portal to all federal, state and local government web resources and services.